Flag for Norfolk Island Weather past 2 weeks in Kingston, Norfolk Island

Now
63 °F

Passing clouds.


Feels Like: 63 °F
Forecast: 62 / 68 °F
Wind: 20 mph from Southwest

Location: Norfolk Island Airport

Current Time: May 23, 2015 at 10:25:57 PM

Latest Report: May 23, 2015 at 9:30 PM


Visibility: N/A

Pressure: 29.89 "Hg

Humidity: 77%

Dew point: 55 °F

Location of KingstonLocation

Historic Weather in Kingston — Graph

°F

Kingston temperature yesterday

Maximum temperature yesterday: 72 °F (at 11:00 AM)
Minimum temperature yesterday: 63 °F (at 3:00 AM)
Average temperature yesterday: 68 °F

Past Weeks' High & Low Weather Summary

 TemperatureHumidityPressure
High73 °F (May 12, 10:30 AM)100% (May 9, 10:30 AM)30.33 "Hg (May 9, 10:30 AM)
Low57 °F (May 20, 5:30 AM)38% (May 19, 11:00 AM)29.68 "Hg (May 23, 5:30 AM)
Average66 °F67%30.05 "Hg
* Reported May 8 8:30 PM — May 23 9:00 PM, Kingston, Weather by CustomWeather, © 2015

Note: Actual official high and low records may vary slightly from our data, if they occured in-between our weather recording intervals... More about our weather records

Advertising

Kingston weather history for previous 24 hours

 ConditionsComfort  
Time TempWeatherWind HumidityBarometerVisibility
9:00 PM
Sat, May 23
64 °FPartly cloudy.21 mph73%29.89 "HgN/A
8:30 PM64 °FPartly cloudy.23 mph73%29.89 "HgN/A
8:00 PM63 °FOvercast.23 mph83%29.86 "Hg4 mi
7:30 PM64 °FOvercast.21 mph78%29.86 "Hg5 mi
7:00 PM64 °FMostly cloudy.21 mph78%29.83 "Hg6 mi
6:30 PM64 °FPartly cloudy.24 mph78%29.80 "HgN/A
6:00 PM66 °FPassing clouds.28 mph68%29.80 "HgN/A
5:30 PM66 °FPassing clouds.25 mph68%29.77 "HgN/A
5:00 PM66 °FPassing clouds.25 mph68%29.77 "HgN/A
4:30 PM66 °FScattered clouds.30 mph68%29.74 "HgN/A
3:30 PM68 °FScattered clouds.26 mph64%29.74 "HgN/A
2:33 PM68 °FPartly sunny.26 mph64%29.74 "HgN/A
2:00 PM66 °FBroken clouds.26 mph83%29.71 "HgN/A
1:30 PM70 °FSprinkles. Partly sunny.28 mph69%29.71 "HgN/A
1:00 PM70 °FPassing clouds.30 mph64%29.71 "HgN/A
12:30 PM68 °FSprinkles. Scattered clouds.30 mph73%29.74 "HgN/A
12:00 PM72 °FPassing clouds.31 mph61%29.74 "HgN/A
11:30 AM72 °FScattered clouds.31 mph61%29.74 "HgN/A
10:34 AM70 °FPassing clouds.24 mph64%29.74 "HgN/A
10:00 AM70 °FScattered clouds.23 mph69%29.77 "HgN/A
9:30 AM68 °FBroken clouds.23 mph78%29.77 "HgN/A
9:00 AM68 °FBroken clouds.24 mph78%29.77 "HgN/A
8:30 AM66 °FPartly sunny.18 mph83%29.74 "HgN/A
8:00 AM66 °FBroken clouds.18 mph78%29.74 "HgN/A
7:30 AM66 °FSprinkles. Broken clouds.23 mph83%29.74 "HgN/A
6:30 AM66 °FCloudy.17 mph94%29.71 "Hg3 mi
6:00 AM68 °FMostly cloudy.20 mph94%29.68 "Hg4 mi
5:34 AM70 °FMostly cloudy.22 mph88%29.68 "Hg4 mi
5:30 AM70 °FOvercast.22 mph88%29.68 "Hg5 mi
4:30 AM70 °FOvercast.20 mph88%29.71 "Hg4 mi
3:34 AM70 °FOvercast.15 mph88%29.74 "HgN/A
3:00 AM70 °FMostly cloudy.15 mph88%29.77 "Hg4 mi
2:30 AM70 °FMostly cloudy.16 mph88%29.77 "Hg6 mi
2:00 AM70 °FOvercast.15 mph88%29.80 "HgN/A
1:30 AM70 °FOvercast.14 mph88%29.80 "HgN/A
1:00 AM68 °FOvercast.13 mph94%29.83 "HgN/A
12:30 AM68 °FOvercast.13 mph88%29.83 "HgN/A
12:00 AM68 °FOvercast.12 mph88%29.83 "HgN/A
11:33 PM
Fri, May 22
68 °FMostly cloudy.14 mph88%29.86 "HgN/A
11:00 PM68 °FOvercast.15 mph94%29.86 "Hg2 mi
10:30 PM70 °FOvercast.16 mph88%29.86 "HgN/A
Weather by CustomWeather, © 2015

See weather overviewHow to use our weather pages